Regional Weather Roundup
Issued by NWS Little Rock, AR

Home | Current Version | Previous Version | Graphics & Text | Print | Product List | Glossary On
Versions: 1 2 3 4 5 6 7 8 9 10 11 12 13 14 15 16 17 18 19 20 21 22 23 24 25 26 27 28 29 30 31 32 33 34 35 36 37 38 39 40 41 42 43 44 45 46 47 48 49 50
000
ASUS44 KLZK 231005
RWRLZK

WEATHER ROUNDUP FOR ARKANSAS
NATIONAL WEATHER SERVICE LITTLE ROCK AR
500 AM CDT MON OCT 23 2017

NOTE: "FAIR" INDICATES FEW OR NO CLOUDS BELOW 12,000 FEET WITH NO
SIGNIFICANT WEATHER AND/OR OBSTRUCTIONS TO VISIBILITY.

ARZ001-003-010-029-231100-
NORTHWEST ARKANSAS

CITY           SKY/WX    TMP DP  RH WIND       PRES   REMARKS
FAYETTEVILLE   PTCLDY    37  37 100 S3        30.06F
FORT SMITH     CLEAR     46  45  96 SW5       30.07S
HARRISON       CLEAR     47  42  83 W5        30.01F
BENTONVILLE    CLEAR     40  40 100 S5        30.07F
ROGERS         CLEAR     43  41  93 SW6       30.06S
SILOAM SPGS    CLEAR     38  38 100 CALM      30.06F
HIGHFILL       CLEAR     40  39  97 S3        30.05F
$$

ARZ004-005-016-231100-
NORTH CENTRAL ARKANSAS

CITY           SKY/WX    TMP DP  RH WIND       PRES   REMARKS
BATESVILLE     PTCLDY    49  48  97 W5        29.99S
FLIPPIN        CLOUDY    51  48  89 W6        30.01F
MTN HOME       CLOUDY    50  50 100 CALM      29.98F
$$

ARZ040-041-231100-
WEST CENTRAL ARKANSAS

CITY           SKY/WX    TMP DP  RH WIND       PRES   REMARKS
MENA           CLEAR     48  46  93 SW6       30.08S
$$

ARZ009-017-025-026-028-231100-
NORTHEAST ARKANSAS

CITY           SKY/WX    TMP DP  RH WIND       PRES   REMARKS
JONESBORO      CLOUDY    53  52  96 NW8       29.96S
NEWPORT        MOCLDY    52  49  89 NW8       29.99R
WALNUT RIDGE   CLOUDY    52  51  97 NW7       29.97S
BLYTHEVILLE    CLOUDY    54  53  97 NW12      29.94S
$$

ARZ022-023-033-042-044-231100-
CENTRAL ARKANSAS

CITY           SKY/WX    TMP DP  RH WIND       PRES   REMARKS
LITTLE ROCK    PTCLDY    48  46  93 W6        30.03F
N LITTLE ROCK    N/A     49  46  89 W3        30.04S
JACKSONVILLE   PTCLDY    47  46  96 SW3       30.01F
SEARCY         CLEAR     49  49 100 CALM      30.01
HOT SPRINGS    CLEAR     46  45  96 W3        30.05F
RUSSELLVILLE   CLEAR     43  42  97 CALM      30.04F FOG
CLINTON        FAIR      48  46  93 CALM      30.00F
$$

ARZ036-231100-
EAST ARKANSAS

CITY           SKY/WX    TMP DP  RH WIND       PRES   REMARKS
WEST MEMPHIS   CLOUDY    54  53  97 VRB5      29.96S
$$

ARZ050-053-066-070-073-231100-
SOUTHWEST ARKANSAS

CITY           SKY/WX    TMP DP  RH WIND       PRES   REMARKS
ARKADELPHIA    FAIR      42  42 100 CALM      30.06F
CAMDEN         CLEAR     45  43  93 CALM      30.06F
TEXARKANA      CLEAR     46  45  96 SW6       30.09S
EL DORADO      CLEAR     46  46 100 SW3       30.08S
DE QUEEN       FOG       39  39 100 CALM      30.08S VSB 1/4
$$

ARZ056-057-069-231100-
SOUTHEAST ARKANSAS

CITY           SKY/WX    TMP DP  RH WIND       PRES   REMARKS
PINE BLUFF     PTCLDY    49  45  86 W6        30.04R
STUTTGART      CLOUDY    53  49  86 W9        30.02S
MONTICELLO     PTCLDY    51  48  89 W6        30.04R

$$





USA.gov is the U.S. government's official web portal to all federal, state and local government web resources and services.